Flag for India Weather past 2 weeks in Ghazipur, Uttar Pradesh, India

Now
102 °F

Clear.


Feels Like: 119 °F
Forecast: 85 / 99 °F
Wind: 7 mph from West

Location: Varanasi / Babatpur

Current Time: Jul 3, 2015 at 4:35:12 PM

Latest Report: Jul 3, 2015 at 3:00 PM


Visibility: 4 mi

Pressure: 29.53 "Hg

Humidity: 45%

Dew point: 77 °F

Location of GhazipurLocation

Historic Weather in Ghazipur — Graph

°F

Ghazipur temperature yesterday

Maximum temperature yesterday: 99 °F (at 3:00 PM)
Minimum temperature yesterday: 82 °F (at 6:00 AM)
Average temperature yesterday: 90 °F

Past Weeks' High & Low Weather Summary

 TemperatureHumidityPressure
High106 °F (Jun 20, 3:00 PM)100% (Jun 28, 1:00 PM)29.68 "Hg (Jun 28, 1:00 PM)
Low75 °F (Jun 29, 12:00 AM)31% (Jun 19, 2:00 PM)29.30 "Hg (Jun 22, 5:00 PM)
Average90 °F63%29.49 "Hg
* Reported Jun 18 3:00 PM — Jul 3 3:00 PM, Ghazipur, Weather by CustomWeather, © 2015

Note: Actual official high and low records may vary slightly from our data, if they occured in-between our weather recording intervals... More about our weather records

Advertising

Ghazipur weather history for previous 24 hours

 ConditionsComfort  
Time TempWeatherWind HumidityBarometerVisibility
3:00 PM
Fri, Jul 3
102 °FClear.7 mph45%29.53 "Hg4 mi
2:00 PM100 °FClear.7 mph47%29.53 "Hg4 mi
1:00 PM97 °FHaze.9 mph53%29.56 "Hg3 mi
12:00 PM93 °FHaze.10 mph59%29.59 "Hg3 mi
11:00 AM91 °FScattered clouds.9 mph59%29.59 "Hg3 mi
10:00 AM91 °FScattered clouds.9 mph59%29.59 "Hg3 mi
9:00 AM88 °FScattered clouds.9 mph66%29.59 "Hg2 mi
8:00 AM86 °FHaze.7 mph70%29.59 "Hg2 mi
7:00 AM84 °FHaze.6 mph74%29.59 "Hg3 mi
6:00 AM82 °FHaze.6 mph79%29.56 "Hg3 mi
5:00 AM82 °FHaze.5 mph79%29.56 "Hg3 mi
4:00 AM84 °FHaze.6 mph74%29.56 "Hg3 mi
12:00 AM84 °FPassing clouds.2 mph70%29.59 "Hg3 mi
11:00 PM
Thu, Jul 2
86 °FPassing clouds.3 mph70%29.59 "Hg3 mi
9:00 PM88 °FHaze.3 mph70%29.59 "Hg3 mi
7:00 PM93 °FScattered clouds.No wind63%29.53 "Hg4 mi
6:00 PM93 °FScattered clouds.3 mph67%29.53 "Hg4 mi
5:00 PM99 °FScattered clouds.3 mph53%29.53 "Hg4 mi
4:00 PM99 °FScattered clouds.7 mph50%29.53 "Hg4 mi
Weather by CustomWeather, © 2015

See weather overviewHow to use our weather pages